Regional Weather Roundup
Issued by NWS Wakefield, VA

Home | Current Version | Previous Version | Graphics & Text | Print | Product List | Glossary On
Versions: 1 2 3 4 5 6 7 8 9 10 11 12 13 14 15 16 17 18 19 20 21 22 23 24 25 26 27 28 29 30 31 32 33 34 35 36 37 38 39 40 41 42 43 44 45 46 47 48 49 50
000
ASUS41 KAKQ 222015
RWRAKQ

REGIONAL WEATHER ROUNDUP
NATIONAL WEATHER SERVICE WAKEFIELD VA
400 PM EDT TUE AUG 22 2017

Note: "fair" indicates few or no clouds below 12,000 feet with no
significant weather and/or obstructions to visibility. * = Denotes
station may not report precipitation (e.g., rain,snow,etc.),
thunder or fog.

VAZ042-051-052>054-056-222100-
NORTHERN VIRGINIA

CITY           SKY/WX    TMP DP  RH WIND       PRES   REMARKS
WASH NATIONAL  MOSUNNY   92  73  53 S22G28    29.88F HX 100
DULLES         MOSUNNY   91  74  57 S16G22    29.87F HX 100
FORT BELVOIR   SUNNY     91  71  52 S9G18     29.88F HX  98
QUANTICO       MOSUNNY   91  75  59 S15       29.89F HX 101
FREDERICKSBRG* SUNNY     94  69  45 S14G20    29.89F HX  99
STAFFORD*      SUNNY     90  69  50 S9G18     29.94F HX  95
WARRENTON      SUNNY     93  67  43 S12G21    29.89F HX  96
CULPEPER*      MOSUNNY   93  71  47 S12G18    29.89F HX 100
MANASSAS*      SUNNY     92  75  57 S14       29.88F HX 103
LEESBURG*      MOSUNNY   95  73  49 S16       29.88F HX 105
WINCHESTER     SUNNY     90  68  48 S13G21    29.88F
FRONT ROYAL*   PTCLDY    90  68  48 SW7       29.88F
LURAY*         PTCLDY    90  64  43 SW13G20   29.91F
$$

VAZ048-049-060>072-079>083-222100-
CENTRAL AND SOUTH CENTRAL VIRGINIA

CITY           SKY/WX    TMP DP  RH WIND       PRES   REMARKS
RICHMOND       MOSUNNY   90  72  55 SW14      29.94F HX  97
CHESTERFIELD*  FAIR      90  73  57 S12       29.95F HX  98
PETERSBURG*    MOSUNNY   89  68  50 S8        29.97F
HANOVER        SUNNY     92  70  48 S13       29.94F HX  97
TAPPAHANNOCK*  SUNNY     93  62  36 S10       29.95F
QUINTON*       FAIR     N/A N/A N/A S6        29.94F
CHARLOTTSVILLE MOSUNNY   95  65  37 S13G21    29.90F HX  97
GORDONSVILLE*  PTCLDY    94  67  41 S10G20    29.90F HX  98
ORANGE*        PTSUNNY   91  68  46 SW5G17    29.89F HX  95
LOUISA*        SUNNY     91  64  40 S6G17     29.91F
BUMPASS*       FAIR      91  71  51 S9G16     29.92F HX  97
FARMVILLE*     SUNNY     95  52  23 SW15      29.92F
CREWE*         FAIR      91  65  42 S7G21     29.95F
FORT PICKETT*  FAIR     N/A N/A N/A SW16G24   29.97F
CHASE CITY*    FAIR      91  69  46 S7        29.97F HX  96
CLARKSVILLE*   FAIR      90  68  48 S9        29.97F
SOUTH HILL*    MOSUNNY   89  74  60 S13       30.04F HX  98
LAWRENCEVILLE* FAIR      89  73  60 S8        29.97F HX  97
EMPORIA*       MOSUNNY   88  73  62 S8        29.99F HX  96
$$

VAZ088>098-222100-
SOUTHEAST VIRGINIA

CITY           SKY/WX    TMP DP  RH WIND       PRES   REMARKS
NORFOLK        MOSUNNY   92  72  51 SW14G22   29.97F HX  99
VIRGINIA BEACH PTSUNNY   90  70  51 SW14G20   29.97F HX  95
NORFOLK NAVAL  PTSUNNY   92  73  53 S8        29.98F HX 100
WEST POINT*    MOSUNNY   90  70  50 S10       29.96F HX  95
SALUDA*        FAIR      89  75  62 S10G18    29.95F HX  99
NEWPORT NEWS   SUNNY     89  73  59 SW13G18   29.96F HX  97
LANGLEY AFB    MOSUNNY   90  73  58 SW14G23   29.96F HX  98
FORT EUSTIS    SUNNY     92  74  56 S9        29.94F HX 102
WILLIAMSBURG*  SUNNY     93  73  52 S6        29.97F HX 102
HR EXEC AP*    FAIR      90  73  58 SW10      29.95F HX  98
FRANKLIN*      MOSUNNY   89  73  59 S8G16     29.98F HX  96
US460-WAKEFLD  MOSUNNY   88  73  61 VRB7      29.97F HX  95
$$

VAZ020-022-025-037-045-222100-
WEST CENTRAL AND SOUTHWEST VIRGINIA

CITY           SKY/WX    TMP DP  RH WIND       PRES   REMARKS
STAUNTON*      SUNNY     90  67  45 SW14G20   29.96F
WAYNESBORO*    MOCLDY    90  68  47 SW12G18   29.97F
HOT SPRINGS VA MOSUNNY   81  55  41 SW13      30.13F
LYNCHBURG      MOSUNNY   91  67  44 SW14      29.96F
DANVILLE       MOSUNNY   90  70  51 S7        29.97F HX  95
SOUTH BOSTON*  FAIR      92  67  44 S9        29.96F HX  95
MARTINSVILLE   MOSUNNY   90  69  50 S7        30.01F
ROANOKE        MOSUNNY   94  62  34 W15G21    29.97F
BLACKSBURG     MOSUNNY   87  66  50 SW6       30.06F
DUBLIN*        SUNNY     88  64  44 W10G16    30.05F
MARION*        SUNNY     84  46  26 SW7       30.11F
HILLSVILLE*    MOSUNNY   84  58  41 SW6       30.08F
RICHLANDS*     FAIR      82  54  38 W10G20    30.09F
WISE*          MOSUNNY   81  61  50 SW9       30.11S
ABINGDON*      SUNNY     87  65  47 W12       30.07F
$$

MDZ021>025-VAZ099-100-222100-
SOUTHERN MARYLAND AND THE DELMARVA PENINSULA

CITY           SKY/WX    TMP DP  RH WIND       PRES   REMARKS
PATUXENT RIVER MOSUNNY   89  73  59 S12G21    29.92F HX  97
BAY BRIDGE APT SUNNY     91  75  59 S10       29.90F HX 102
LEONARDTOWN    SUNNY     90  70  51 S7        29.94F HX  95
DOVER          SUNNY     90  70  51 S16G26    29.88F HX  95
GEORGETOWN     SUNNY     91  70  49 SW15      29.93F HX  96
EASTON         MOSUNNY   91  73  55 S18G25    29.95F HX 100
CAMBRIDGE      SUNNY     88  75  66 VRB6G16   29.93F HX  97
SALISBURY      SUNNY     88  73  61 S16G24    29.94F HX  95
OCEAN CITY     SUNNY     82  76  81 S14G24    29.96F
WALLOPS ISLAND MOSUNNY   84  78  82 S16G25    29.97F HX  95
ACCOMACK*      MOSUNNY   86  78  77 S16       29.97F HX  98
$$

NCZ012>017-030>032-222100-
NORTH CENTRAL AND EASTERN NORTH CAROLINA

CITY           SKY/WX    TMP DP  RH WIND       PRES   REMARKS
ROANOKE RAPIDS FAIR      88  72  58 S9        29.98F
RALEIGH        MOSUNNY   94  71  47 S10       29.99F HX 101
ELIZABETH CITY MOSUNNY   89  75  63 S10       30.00F HX  99
AHOSKIE*         N/A     87  73  61 S5        30.00F
EDENTON*       PTSUNNY   89  78  68 SW13G20   30.01F HX 103
CURRITUCK*     PTSUNNY   89  74  61 S5        30.01F HX  97
KILL DEVIL HLS SUNNY     87  74  66 S6G18     30.01F HX  95
MANTEO         SUNNY     86  77  74 S16G22    30.02F HX  96
CAPE HATTERAS  SUNNY     88  78  72 SW10      30.05F HX 101
TARBORO*       NOT AVBL
GOLDSBORO      SUNNY     91  74  56 SW10      30.00F HX 100
WASHINGTON     MOSUNNY   87  74  66 S9        30.03S HX  95
GREENVILLE     MOSUNNY   86  73  66 S10       30.03F
NEW BERN       CLOUDY    84  78  82 S8        30.04F HX  95
WILMINGTON     MOSUNNY   91  72  53 S9        30.02F HX  98
$$

VAZ048-222100-
ELSEWHERE

CITY           SKY/WX    TMP DP  RH WIND       PRES   REMARKS
HARRISBURG PA  MOSUNNY   90  71  53 S13G22    29.83F HX  96
BALTIMORE      MOSUNNY   92  72  51 S13G18    29.86F HX  99
ANNAPOLIS      MOSUNNY   92  75  57 S10G21    29.88F HX 103
ANDREWS AFB    SUNNY     91  69  49 S17       29.89F HX  95
PHILADELPHIA   MOSUNNY   90  72  55 S16       29.87F HX  97
HENDERSON NC   MOSUNNY   87  68  52 S8        29.99F
GREENSBORO     MOSUNNY   91  68  46 SW7       29.98F HX  95
ROCKY MOUNT    MOSUNNY   91  73  55 W9        29.99F HX  99
$$

VAZ100-222100-
MARINE

STATION/POSITION TIME  TEMP    WIND        PRES    WAVE   SWELL
                       AIR SEA DIR/SP/G            HT/PER HT/PER
                 (UTC) (F)     (DEG/KT/KT) (MB)    (FT/S) (FT/S)
BRANDYWINE LGT   1948   86     220/ 17/ 19 1013.3F
CAPE MAY NJ      1948   82 79  180/ 12/ 17 1012.7F
LEWES DE         1948   90 76  230/ 10/ 15 1013.1F
15NM E FENWICK I 1850   80 78  190/ 17/ 21 1015.7    3/ 5   2/ 9
OCEAN-CITY-INLET 1948   79 81  210/ 16/ 20 1014.9F
WACHAPREAGUE VA  1948   84 88  190/ 13/ 17 1015.0F
THOMAS POINT MD  2000   85 83  180/ 15/ 16   N/A
GOOSES REEF MD   1950   87     190/ 12/ 14 1013.5F
COVE POINT MD    1948   88     190/ 15/ 18 1013.9F
SOLOMONS ISLAND  1948   88 83  200/ 10/ 17   N/A
BISHOPS HEAD MD  1948   85 85  180/ 20/ 23 1013.9F
PINEY POINT MD   1948          210/ 14/ 16   N/A
POTOMAC MD       1950   88     200/ 12/ 16 1012.9F
CAMBRIDGE MD     1948   90 84              1014.2F
LEWISETTA VA     1948   89 84  210/ 13/ 16 1013.5F
RAPPAHANNOCK LGT 1948          170/ 12/ 14 1015.4F
STINGRAY PT      1950   87     230/ 10/ 14 1014.8F
YORK RVR RNG VA  1948   86     220/ 13/ 14 1015.1F
YORKTOWN VA      1948   88 83  200/ 10/ 14 1014.3F
JAMESTOWN VA     1950          220/ 12/ 16   N/A
DOMINION TERM VA 1948   87     220/  9/ 12 1015.1F
KIPTOPEKE VA     1948      83  170/  6/  7   N/A
CHES BAY BRIDGE  1948   88 83  240/ 13/ 16 1014.8F
CAPE HENRY VA    1948   89     180/  8/ 14   N/A
WILLOUBY STN VA  1948   88     230/ 12/ 14 1014.8F
S CRANEY ISL VA  1948   89     200/  9/ 12 1015.0F
CAPE HENRY BUOY  1930      81                N/A     3/12   2/12
1ST LANDING BUOY 1950   87                 1014.8F
64NM E OF VA BCH 1850   80 81  190/ 10/ 12 1018.1    3/11   3/11
DUCK PIER NC     1948   86 76  170/ 11/ 14 1015.7F
44100 DUCK FRF   1905      82                N/A     3/ 9   2/11
44056 DUCK FRF   1930      83                N/A     3/11   2/11
OREGON INLET NC  1942   84 84  180/ 15/ 19 1016.9F
HATTERAS NC      1948   85 83  210/  7/ 13 1017.4F
DIAMOND SHLS NC  1850   84 87  210/ 14/ 16 1018.0    3/10   3/10
CAPE LOOKOUT NC  1900   84     210/ 10/ 13 1017.7F
$$



USA.gov is the U.S. government's official web portal to all federal, state and local government web resources and services.